www.pogodaiklimat.ru

Погода и климат >> Архив погоды >> Россия >> Оренбургская область >> Домбаровский


АРХИВ ПОГОДЫ в Домбаровском

Время (UTC), дата Ветер
(напр.,м/с)
 
Видим.   Явления Облачность Т
(С)
Тd
(С)
f
(%)
Тe
(С)
Тes
(С)
Комфортность P
(гПа)
Po
(гПа)
Тmin
(С)
Tmax
(С)
R
(мм)
R24
(мм)
S
(см)
21 8.09 СЗ 2 20 км 5/0
[Ac trans]
+10.5 +8.5 87 +9 +9 1022.3 988.7
00 9.09 С 1 20 км ясно +7.9 +6.6 91 +7 +7 1022.7 988.8
03 9.09 С 2 20 км 8/0
[Ac trans]
+9.1 +6.9 86 +7 +8 1023.7 989.8 +6.9
06 9.09 С 4 20 км 3/3 600 м
[Sc]
+14.9 +3.3 46 +14 +18 1023.5 990.3
09 9.09 С 3 20 км 8/8 600 м
[Sc]
+17.8 +5.2 43 +18 +20 1022.8 990.0
12 9.09 С 3 20 км 6/6 800 м
[Sc]
+18.5 +4.1 38 +19 +20 1022.6 989.9
15 9.09 СЗ 2 20 км 1/0
[Ci fib]
+13.7 +4.1 52 +13 +13 1023.6 990.3 +19.0
18 9.09 С 1 20 км ясно +9.0 +4.3 72 +9 +9 1024.9 991.0
21 9.09 С 1 20 км ясно +6.3 +3.4 82 +5 +5 1025.7 991.4
00 10.09 С 2 20 км ясно +4.1 +2.5 89 +1 +1 1026.4 991.8
03 10.09 штиль 0 20 км 9/0
[Ci]
+6.3 +4.2 86 +5 +6 1026.9 992.6 +3.7
06 10.09 С 1 20 км 9/0
[Ci fib]
+15.1 +6.3 56 +16 +23 1026.3 993.0
09 10.09 СВ 3 20 км 8/6 600 м
[Cb cap Ci fib]
+19.0 +4.5 38 +20 +22 1025.5 992.7
12 10.09 СВ 2 20 км 8/5 600 м
[Cb calv Ac trans]
+19.7 +2.0 31 +21 +21 комфорт 1025.4 992.7
15 10.09 СВ 1 20 км 6/0
[Ac trans]
+15.9 +7.3 57 +17 +17 1027.0 993.8 +20.9
18 10.09 СВ 1 20 км 5/0
[Ac As Ci fib]
+12.0 +7.0 71 +12 +12 1028.3 994.6
21 10.09 С 1 20 км 3/0
[Ci sp]
+7.2 +4.9 85 +6 +6 1029.8 995.5
00 11.09 С 1 20 км ясно +5.3 +4.2 93 +4 +4 1030.9 996.3
03 11.09 СЗ 1 20 км ясно +7.4 +4.9 84 +7 +8 1032.2 997.9 +3.6
06 11.09 Ю 1 20 км 3/0
[Ci sp]
+17.7 +6.4 47 +19 +27 1031.7 998.6
09 11.09 С 1 20 км 8/8 800 м
[Cu med, cong]
+19.6 +5.1 39 +21 +23 комфорт 1031.3 998.4
12 11.09 С 3 20 км 6/6 600 м
[Cu med, cong]
+21.7 +4.2 32 +22 +23 комфорт 1030.6 997.9
15 11.09 С 1 20 км ясно +14.1 +4.9 54 +15 +15 1031.8 998.2 +22.0
18 11.09 СВ 1 20 км ясно +10.6 +4.3 65 +11 +11 1032.9 998.9
21 11.09 В 1 20 км ясно +6.9 +3.6 79 +6 +6 1033.1 998.7
00 12.09 штиль 0 20 км ясно +4.5 +1.8 83 +4 +4 1033.5 998.7
03 12.09 штиль 0 20 км ясно +8.7 +3.4 69 +8 +9 1033.1 998.8 +3.6
06 12.09 С 2 20 км ясно +19.6 +3.4 34 +21 +28 комфорт 1031.2 998.3
09 12.09 СЗ 2 20 км ясно +22.0 +3.1 29 +22 +31 комфорт 1029.1 996.6
12 12.09 С 2 20 км ясно +22.6 -0.4 22 +22 +25 комфорт 1027.2 994.8
15 12.09 штиль 0 20 км ясно +14.1 +2.8 46 +14 +14 1027.6 994.2 +23.0
18 12.09 Ю 1 20 км ясно +10.4 +2.1 56 +10 +10 1028.1 994.3
21 12.09 ЮВ 1 20 км ясно +7.3 -0.2 59 +7 +7 1027.5 993.3
00 13.09 В 1 20 км ясно +5.1 -0.2 69 +4 +4 1027.5 993.0
03 13.09 штиль 0 20 км ясно +7.6 +0.6 61 +7 +8 1027.3 993.2 +4.0
06 13.09 штиль 0 20 км ясно +21.3 +2.8 30 +21 +31 комфорт 1025.4 992.9
09 13.09 С 1 20 км ясно +23.9 +1.9 24 +23 +34 комфорт 1023.8 991.6
12 13.09 Ю 2 20 км ясно +23.9 0.0 21 +23 +25 комфорт 1022.4 990.3
15 13.09 СВ 1 20 км 3/0
[Ci sp]
+15.5 +2.8 42 +16 +16 1022.9 989.8 +24.5
18 13.09 Ю 1 20 км ясно +10.0 +2.8 61 +10 +10 1023.7 989.9
21 13.09 ЮВ 1 20 км ясно +8.0 +2.0 66 +8 +8 1023.2 989.2
00 14.09 ЮЗ 1 20 км ясно +5.4 -0.3 67 +5 +5 1023.3 989.0
03 14.09 В 1 20 км ясно +9.3 +1.8 59 +9 +10 1022.5 988.7 +5.0
06 14.09 Ю 1 20 км ясно +22.7 +0.1 22 +22 +30 комфорт 1020.5 988.3
09 14.09 Ю 4 20 км 4/4 600 м
[Cu med, cong]
+24.6 -2.2 17 +23 +26 комфорт 1019.1 987.1
12 14.09 ЮЗ 2 20 км 5/5 600 м
[Cu med, cong]
+24.9 -1.7 17 +23 +24 комфорт 1018.3 986.3
15 14.09 З 1 20 км 3/0
[Ci sp]
+16.1 +1.5 37 +17 +17 1019.0 986.1 +25.6
18 14.09 Ю 1 20 км ясно +11.8 +0.3 45 +12 +12 1019.5 986.1
21 14.09 ЮВ 1 20 км 6/6 600 м
[Sc]
+9.9 -1.1 46 +10 +10 1019.4 985.8
00 15.09 Ю 1 20 км 5/3 600 м
[Sc Ac As]
+9.1 +0.2 54 +9 +9 1019.4 985.7
03 15.09 штиль 0 20 км 3/3 600 м
[Sc Ac As]
+11.8 +1.1 48 +12 +12 1019.3 985.9 +7.0
06 15.09 Ю 1 20 км ясно +23.5 +2.2 25 +23 +31 комфорт 1017.9 985.8
09 15.09 З 2 20 км 6/6 600 м
[Cb calv]
+25.5 -1.8 16 +23 +27 комфорт 1016.4 984.6
12 15.09 ЮЗ 2 20 км 8/8 600 м
[Cb cap Ac trans]
+24.2 -1.3 18 +23 +23 комфорт 1015.5 983.6
15 15.09 ЮЗ 1 20 км 8/0
[Ac As]
+18.6 -1.1 26 +20 +20 1015.4 982.9 +26.5
18 15.09 Ю 2 20 км 8/0
[Ci fib]
+13.8 -0.6 37 +14 +14 1015.3 982.2

 

Местоположение метеостанции Домбаровский (Оренбургская область, Россия): широта 50.75 долгота 59.55 высота над уровнем моря 278 м.

В архиве по умолчанию представлена погода в Домбаровском за последнюю неделю. Архивные данные за месяц целиком и за предыдущие месяцы, начиная с января 2011 года, Вы можете получить, выбрав интересующий диапазон дат из раскрывающегося списка и нажав кнопку "Ввод!".


*Определитесь, кто Вы:
робот инопланетянин человек

Внимание! Время в таблицах - всемирное. Для получения местного времени необходимо прибавить поправку, которая равна 5 ч.

Смотрите также архив погоды в соседних городах и на ближайших метеорологических станциях:

Погода в Степном (Актюбинская область, Казахстан) (61 км)
Погода в Комсомольском (Костанайская область, Казахстан) (75 км)
Погода в Орске (Оренбургская область, Россия) (76 км)
Погода в Карабутаке (Актюбинская область, Казахстан) (98 км)
Погода в Зерносовхозе Озерном (Оренбургская область, Россия) (100 км)
Погода в Кос-Истеке (Актюбинская область, Казахстан) (116 км)
Погода в Акжаре (Актюбинская область, Казахстан) (124 км)
Погода в Энергетике (Оренбургская область, Россия) (124 км)
Погода в Айдырля (Оренбургская область, Россия) (135 км)
Погода в Теренсае (Актюбинская область, Казахстан) (151 км)

Пояснения к столбцам:

Ветер - указаны скорость ветра в м/с - средняя за 10 мин, порывы в срок и между сроками (в фигурных скобках) и направление, откуда дует ветер: С - северный, СВ - северо-восточный, В - восточный, ЮВ - юго-восточный, Ю - южный, ЮЗ - юго-западный, З - западный, СЗ - северо-западный.
Видимость - горизонтальная дальность видимости в метрах или километрах. При видимости от 1 до 10 км при отсутствии осадков обычно наблюдается дымка, при ухудшении видимости до 1 км и менее - туман. В сухую погоду видимость может ухудшаться дымом, пылью или мглою.
Явления - указаны атмосферные явления, наблюдавшиеся в срок или в последний час перед сроком; фигурными скобками обозначены явления, наблюдавшиеся между сроками (за 1-3 часа до срока); квадратными скобками обозначены град или гололедные отложения с указанием их диаметра в мм.
Облачность - указаны через наклонную черту общая и нижняя облачность в баллах и высота нижней границы облаков в метрах; квадратными скобками обозначены формы облаков: Ci - перистые, Cs - перисто-слоистые, Cc - перисто-кучевые, Ac - высококучевые, As - высокослоистые, Sc - слоисто-кучевые, Ns - слоисто-дождевые, Cu - кучевые, Cb - кучево-дождевые. Подробнее классификацию облаков см. в Атласе облаков (PDF).
T - Температура воздуха - температура, измеренная на высоте 2 м над землей.
Td - Температура точки росы - температура, при понижении до которой содержащийся в воздухе водяной пар достигнет насыщения.
f - Относительная влажность воздуха - влажноcть воздуха, измеренная на высоте 2 м над землей.
Te - Эффективная температура - температура, которую ощущает одетый по сезону человек в тени. Характеристика душности погоды. При расчете учитывается влияние влажности воздуха и скорости ветра на теплоощущения человека.
Tes - Эффективная температура на солнце - температура, которую ощущает человек, с поправкой на солнечный нагрев. Характеристика знойности погоды. Зависит от высоты солнца над горизонтом, облачности и скорости ветра. Ночью, в пасмурную погоду, а также при ветре 12 м/с и более поправка равна нулю.
P - Атмосферное давление - приведенное к уровню моря атмосферное давление.
Po - Атмосферное давление - измеренное на уровне метеостанции атмосферное давление.
Tmin - Минимальная температура - минимум температуры воздуха на высоте 2 м над землей.
Tmax - Максимальная температура - максимум температуры воздуха на высоте 2 м над землей.
R - Количество осадков - Количество выпавших осадков за период времени, мм. При наведении курсора мыши на число - период времени, за который выпало указанное количество осадков.
R24 - Количество осадков - Количество выпавших осадков за 24 часа, мм.
S - Снежный покров - Высота снежного покрова, см. При наведении курсора мыши на число - состояние снежного покрова и степень покрытия местности в баллах.